Theta_e
327 328 327 327 326 324 325 327 326 326 326 325 325 323 322 320 318 316 316 315 315 315 314 313 313 312 311 310 307 307 308 308 308 308 307 305 304 304 303 303 304 306 306 306 306 306 306 307 307 307 308 308 308 308 309 309 309 309 308 308 308 307 307 307 307 306 306 305 304 304 303 302 302 301
325 327 327 327 326 323 323 326 326 326 326 326 325 322 321 319 316 314 314 315 316 315 314 313 312 311 310 309 309 308 308 308 308 308 308 306 305 304 304 304 305 306 307 307 307 307 307 307 308 309 310 310 310 311 311 312 312 312 312 312 312 311 311 311 311 311 310 308 307 306 304 303 303 302
324 326 326 327 326 324 323 325 326 325 325 326 324 323 321 317 314 313 312 313 315 315 314 312 311 311 309 308 310 309 308 308 308 308 308 307 306 305 305 304 305 306 307 308 308 308 308 308 309 310 311 312 312 312 312 312 312 313 313 313 313 313 313 313 313 313 312 312 311 309 308 306 304 303
324 325 326 326 325 324 324 325 324 324 325 325 324 324 322 318 314 313 312 312 313 314 313 312 311 311 310 309 309 309 309 309 308 309 308 308 307 306 306 305 305 306 307 308 309 309 309 309 309 310 311 312 312 312 313 313 313 313 313 313 313 313 313 313 313 313 313 313 313 312 311 310 307 305
324 325 325 325 325 324 324 324 324 324 324 325 325 323 320 317 313 312 312 312 312 313 312 311 311 310 310 310 309 309 309 309 309 309 309 309 308 308 308 307 306 306 307 307 308 309 310 310 310 311 312 312 312 313 313 313 312 312 312 312 313 313 313 313 313 313 313 313 313 313 313 312 311 308
323 323 323 324 324 324 324 324 324 324 324 324 325 323 320 318 313 312 314 313 312 312 311 311 311 310 310 311 310 309 308 309 309 309 309 309 309 309 309 309 308 308 308 307 308 309 310 311 312 312 312 312 312 313 312 313 312 312 312 312 312 312 312 312 312 312 312 313 313 313 313 313 312 310
323 322 323 324 324 323 323 323 324 324 324 324 324 323 323 322 317 316 319 318 314 312 311 311 311 310 310 311 310 309 308 308 309 309 310 311 311 311 310 310 310 309 310 309 309 310 311 312 312 312 312 312 312 312 312 312 312 312 312 312 312 312 312 312 312 312 312 312 312 312 312 312 312 312
323 322 322 322 322 322 323 323 324 323 323 324 324 324 324 323 320 319 320 319 316 312 311 312 311 310 311 311 311 310 309 309 309 310 312 312 312 312 312 311 310 311 311 311 310 311 312 312 312 312 312 312 312 312 313 313 313 313 313 313 313 313 313 313 313 313 312 312 312 312 312 312 312 312
323 323 322 321 322 322 322 323 323 323 323 324 324 324 323 322 321 319 317 317 316 312 312 313 312 311 311 311 311 310 311 311 311 311 312 312 312 313 312 312 312 311 312 312 311 311 312 312 313 313 313 313 313 313 313 313 313 313 313 313 313 313 313 314 314 313 313 313 312 312 312 311 311 311
323 322 322 321 321 322 322 323 323 323 324 324 324 324 323 321 320 318 316 315 314 312 313 314 313 312 312 311 311 311 311 312 312 312 312 312 313 313 313 313 313 312 313 312 312 312 312 313 313 313 313 313 313 313 313 313 313 314 314 314 314 313 313 314 314 314 314 313 313 312 312 311 311 311
323 323 323 322 321 322 323 322 323 324 324 324 324 323 321 320 320 319 317 314 313 313 314 314 313 313 312 311 311 311 311 312 312 312 312 312 313 313 313 313 313 313 313 313 313 313 313 313 313 313 313 313 313 313 313 313 313 314 314 314 314 314 314 314 314 315 314 314 313 313 312 311 311 311
324 325 325 324 323 323 323 323 323 324 324 324 324 322 320 320 320 319 317 315 314 314 314 314 314 314 313 312 312 311 311 311 312 313 313 313 313 313 313 314 313 314 313 313 314 314 313 313 313 313 313 313 313 313 313 313 313 314 314 314 315 315 315 315 314 315 314 314 314 313 313 312 311 311
323 324 324 325 325 324 324 324 324 324 324 324 323 322 321 320 319 317 315 315 315 314 314 314 315 315 314 313 313 312 312 313 313 313 313 314 314 314 314 314 314 314 314 314 314 314 314 314 314 313 313 313 313 313 313 313 313 314 314 315 315 315 315 315 315 314 314 314 314 313 313 312 311 310
322 322 322 324 326 325 325 324 324 324 323 323 322 321 321 319 318 316 315 315 316 315 315 315 315 316 316 315 314 314 314 314 314 313 313 314 315 314 314 315 315 315 315 315 315 315 315 315 314 314 314 314 314 314 314 314 314 314 315 315 315 315 315 315 315 315 315 314 314 313 313 312 311 310
321 321 321 323 325 326 325 325 324 324 324 323 321 320 320 319 317 316 315 316 316 316 315 316 317 317 316 316 315 315 315 314 313 313 313 314 314 314 314 314 315 316 315 315 315 316 315 315 315 315 315 315 315 315 315 315 314 315 315 315 315 315 315 315 315 315 315 314 314 313 312 312 311 310
320 320 320 321 323 323 323 323 323 324 324 323 322 321 320 319 318 317 317 317 317 317 317 317 318 318 317 317 317 317 316 316 316 316 316 316 316 315 315 315 316 316 316 316 316 316 316 316 315 316 315 315 315 315 315 315 315 315 315 315 316 316 315 315 315 315 314 314 313 313 312 312 311 310
320 320 320 320 320 321 321 321 321 322 323 323 322 322 321 320 319 319 318 318 318 318 318 318 318 318 318 318 318 318 318 318 318 318 318 317 317 317 317 317 317 317 317 317 317 317 317 317 316 316 316 316 316 315 315 315 316 316 316 316 316 316 316 316 315 315 315 314 313 312 312 311 310 310
319 319 319 320 320 320 320 320 320 320 321 321 321 321 321 321 320 320 319 319 319 319 318 319 318 318 318 318 318 318 318 318 318 317 317 318 317 317 317 317 317 317 316 316 315 316 316 316 316 317 317 317 317 317 317 317 317 317 317 316 316 316 316 316 315 315 315 314 312 312 311 310 310 310
319 319 319 319 320 319 319 320 319 319 319 319 319 318 319 320 320 320 320 319 319 319 319 319 319 318 318 318 318 317 317 317 317 317 316 316 316 316 315 315 315 314 314 314 314 314 314 314 314 315 315 315 316 317 317 318 317 317 317 317 316 316 315 314 315 315 315 314 313 312 310 310 309 309
319 319 319 319 319 318 318 318 318 318 318 318 318 317 317 318 318 319 319 319 319 318 318 318 318 318 317 317 317 317 316 316 316 316 316 316 315 315 315 314 313 313 313 314 315 316 316 315 315 315 314 314 315 316 316 317 317 317 317 317 316 315 313 313 314 315 315 314 312 310 308 307 307 306
319 318 318 318 318 317 317 317 316 316 317 317 318 318 317 317 317 317 317 317 317 317 317 317 316 316 316 316 316 316 316 316 315 315 315 315 315 316 316 315 315 315 315 315 314 314 313 313 313 313 313 313 314 314 314 315 315 316 316 315 315 314 314 314 314 314 314 312 310 308 307 306 305 304
319 318 318 318 318 318 318 317 317 317 316 317 317 317 317 317 317 316 315 315 315 315 315 315 315 315 316 316 316 316 316 317 317 317 317 317 317 318 317 316 314 313 312 311 310 309 308 309 310 312 314 314 313 313 313 314 315 315 314 313 314 315 314 314 314 314 314 311 308 307 307 306 305 302
320 319 319 319 319 319 319 319 319 318 317 317 317 317 317 317 316 315 315 315 314 314 314 314 314 315 315 314 314 314 314 315 315 315 315 314 313 312 310 307 306 305 305 305 306 306 306 308 310 312 313 313 313 313 313 314 313 313 313 312 313 314 313 313 313 314 314 310 305 304 305 304 303 302
320 320 320 320 320 319 319 319 319 318 318 318 317 317 316 316 315 314 313 313 313 312 312 311 311 311 310 309 308 308 307 307 307 307 306 305 305 304 303 302 301 302 302 304 305 305 306 307 308 309 309 310 311 311 311 311 311 312 312 312 312 312 312 312 312 313 313 310 305 304 304 303 301 301
319 319 320 319 318 317 316 316 316 316 315 315 314 313 312 311 310 309 309 308 308 307 307 306 306 305 304 303 303 302 302 302 302 302 302 302 302 302 301 301 301 302 303 305 306 306 307 307 308 308 308 309 310 310 309 309 309 310 311 311 311 311 311 311 312 312 312 309 306 304 304 302 301 301
318 318 317 316 314 313 312 312 312 312 311 311 310 309 309 308 307 306 305 304 304 304 304 304 304 303 302 301 301 301 301 301 301 301 302 302 302 303 303 304 305 305 306 306 307 307 307 307 308 308 309 309 310 309 309 309 309 309 310 310 310 311 311 311 312 312 311 309 306 303 302 302 301 301
315 314 313 311 311 310 310 310 310 309 309 308 307 306 306 305 304 303 303 303 303 303 303 302 302 301 301 301 301 300 301 301 301 302 302 303 303 304 305 305 306 306 306 306 307 307 307 307 307 307 308 308 308 308 308 309 309 310 310 310 309 309 309 309 310 310 310 308 305 303 302 302 302 301
311 310 310 309 309 308 308 307 306 305 303 302 302 302 301 301 301 301 301 301 301 301 300 300 300 300 300 300 300 300 300 300 301 301 302 302 303 303 303 304 304 305 305 305 306 305 305 305 306 306 306 307 307 307 308 308 308 308 308 308 307 307 307 307 308 308 307 305 303 302 302 302 301 301
310 310 309 307 304 302 302 301 301 300 300 299 299 300 300 300 300 300 300 300 300 299 299 299 299 299 299 299 299 300 300 300 300 300 300 300 301 301 301 302 302 302 302 302 302 302 302 302 303 304 305 306 306 307 306 306 306 306 306 306 306 306 306 307 307 307 306 304 303 302 301 300 300 300
305 304 303 301 299 299 299 299 299 299 300 300 300 300 300 300 300 300 300 299 299 299 299 299 299 299 299 299 299 299 298 298 298 298 297 297 297 298 298 298 298 298 298 298 298 299 299 300 301 302 304 305 305 305 304 304 304 304 305 305 305 305 305 306 306 306 305 304 303 302 300 299 299 299
299 299 299 299 299 299 299 299 300 300 300 301 301 300 300 300 300 300 299 299 299 299 299 299 299 299 299 298 298 297 297 297 297 297 297 297 297 297 297 297 297 297 297 297 297 297 298 299 301 302 303 304 304 303 303 303 303 303 303 304 304 304 305 305 306 305 304 303 302 301 300 299 299 299
298 298 299 299 299 300 300 301 301 301 301 301 301 301 301 301 300 300 300 300 299 299 299 299 298 298 298 298 297 297 297 297 297 297 297 297 297 297 297 297 297 298 297 298 298 297 298 300 301 302 302 302 302 302 303 303 302 303 303 303 303 303 304 304 304 304 303 302 301 300 299 299 299 298
298 299 299 299 300 301 301 301 301 301 301 301 301 300 300 299 299 299 299 298 298 298 298 298 297 297 297 297 297 297 297 297 297 297 297 297 297 297 297 297 297 297 297 297 297 297 298 300 301 302 302 302 301 302 302 302 302 302 302 302 302 302 303 303 303 302 302 301 300 300 299 299 299 298
299 299 300 300 300 301 301 301 300 300 299 298 298 297 297 297 297 297 297 297 297 297 297 297 297 297 297 297 297 297 297 296 296 296 296 296 296 297 297 297 297 297 296 296 297 297 297 299 300 301 301 301 301 301 301 301 301 301 301 301 301 301 302 302 302 302 301 301 300 300 299 298 298 297
299 299 299 299 300 299 299 298 298 297 297 297 297 297 297 297 297 297 297 297 297 297 297 297 296 296 296 296 296 296 296 296 296 296 296 296 296 297 297 296 296 297 296 296 297 297 297 298 300 300 300 300 300 300 300 300 300 300 301 301 300 300 300 301 301 301 301 300 299 299 298 297 297 297
299 299 299 299 298 298 297 296 296 297 297 297 297 297 297 297 297 297 297 297 296 296 296 296 296 296 296 296 296 296 295 295 295 295 295 296 296 296 296 296 296 297 297 297 297 297 297 298 299 299 299 299 299 299 299 299 299 300 300 299 299 299 300 300 300 300 299 298 298 297 297 297 297 296
299 299 299 299 298 297 297 296 297 297 297 297 297 297 297 297 296 296 296 295 295 295 295 295 295 295 295 295 295 295 295 295 295 295 295 295 295 295 295 295 296 296 296 297 297 297 297 298 298 298 298 298 298 297 297 298 298 298 298 298 299 299 299 299 299 298 297 297 297 297 297 296 296 295
299 299 299 298 297 296 296 296 296 297 297 297 297 296 296 296 295 295 295 295 295 295 295 295 295 295 295 295 295 295 295 294 294 294 294 293 293 294 294 294 295 295 295 296 296 296 297 297 297 297 297 297 297 297 297 297 297 297 297 297 298 298 298 298 297 297 297 297 297 296 296 295 295 295
298 298 297 296 296 296 296 297 297 297 297 296 296 295 295 295 295 295 295 295 295 294 294 294 294 294 294 294 294 293 293 293 293 293 293 292 292 293 293 293 294 295 295 295 296 296 296 296 297 297 297 297 297 297 297 297 297 297 297 297 297 297 297 297 297 297 297 297 296 296 295 295 295 295
298 297 296 295 296 297 297 297 297 296 296 295 295 295 295 294 294 294 294 294 294 293 293 293 293 293 292 292 292 292 292 292 292 292 292 292 292 293 293 294 294 295 295 295 296 296 296 296 296 296 296 296 296 296 296 296 296 296 296 296 296 296 296 296 296 296 296 296 296 295 295 295 295 295
297 296 295 296 296 297 296 296 296 296 295 295 295 295 294 294 294 294 293 293 293 292 292 292 291 291 291 291 291 291 291 291 291 291 292 292 292 293 293 294 294 294 294 295 295 295 295 295 295 295 295 295 295 295 296 296 296 296 296 296 296 296 296 296 296 295 295 295 295 295 295 295 295 294
296 295 296 296 296 296 296 296 296 295 295 295 295 294 294 294 293 293 292 292 291 291 290 290 290 290 290 290 290 291 291 291 291 291 292 292 292 292 293 293 294 294 294 294 294 294 294 294 294 294 294 294 294 295 295 295 295 295 296 296 296 296 295 295 295 295 295 295 295 294 294 294 294 294
295 296 296 296 296 296 296 296 296 295 295 295 294 294 293 293 292 292 291 291 290 290 290 290 290 290 290 290 290 290 290 291 291 291 291 292 292 292 292 293 293 293 293 293 293 293 294 294 294 294 294 294 294 294 295 295 295 295 295 295 295 295 295 294 295 295 294 294 294 293 293 292 292 292
296 296 296 296 296 296 296 295 295 295 294 294 294 293 292 292 291 291 290 290 290 290 290 289 289 290 290 290 290 290 290 290 290 291 291 291 292 292 292 292 292 293 293 293 293 293 294 294 294 294 294 294 294 294 294 295 295 295 294 294 294 294 294 294 294 294 294 293 293 292 292 292 292 292
296 296 296 296 296 296 295 295 294 294 293 293 292 292 291 291 290 290 290 290 290 290 290 289 289 289 289 289 290 290 290 290 291 291 291 291 291 292 292 293 293 293 293 293 293 293 293 294 294 294 294 294 294 294 295 295 295 294 294 294 294 294 293 293 293 293 293 294 293 292 292 292 293 293
Wind_Speed
19 21 22 21 18 17 18 18 17 16 16 17 19 20 21 21 22 23 21 18 18 17 13 10 8 7 5 4 5 6 6 6 7 7 8 9 9 9 9 9 8 7 6 5 4 4 3 3 3 3 3 4 4 5 5 6 6 7 7 8 8 9 9 9 10 10 11 11 12 13 13 14 14 14
18 20 21 21 20 18 18 19 19 18 17 18 19 19 18 17 16 16 20 21 19 17 14 12 10 7 6 6 5 6 7 7 8 8 8 9 8 8 8 8 7 6 5 5 3 3 2 2 2 2 3 3 4 4 5 5 6 7 7 7 7 8 8 8 9 10 10 11 12 13 13 14 15 15
18 20 21 22 22 19 17 19 21 19 19 20 20 19 18 17 14 12 14 17 16 16 14 12 10 8 6 6 6 7 8 9 9 9 9 9 9 8 8 7 7 6 5 4 3 3 2 2 2 1 1 1 2 4 4 5 6 6 6 7 7 8 8 9 10 11 11 12 12 13 14 14 15 15
19 20 21 21 22 21 18 19 22 21 21 23 21 18 18 19 16 14 14 11 9 12 14 11 10 9 7 6 7 8 10 11 10 10 9 10 10 9 9 8 7 7 6 5 4 3 3 3 3 2 1 2 3 4 5 6 7 7 8 8 9 10 10 11 11 12 13 13 13 13 14 14 15 15
19 19 19 19 20 20 19 19 21 21 22 25 24 19 19 21 18 17 17 13 10 12 14 13 11 10 8 7 8 10 12 13 12 11 10 10 10 10 10 10 9 9 8 7 6 5 4 4 4 3 3 3 4 5 6 7 9 10 10 11 11 12 12 13 13 14 14 14 14 14 14 15 15 15
19 19 19 18 18 19 19 19 21 21 21 25 26 22 21 21 20 17 16 17 16 15 14 14 15 13 11 10 9 10 12 13 12 12 10 9 9 9 10 10 10 10 9 9 8 7 6 5 4 4 4 4 5 7 8 9 11 12 12 13 14 14 14 15 15 16 16 16 16 16 15 15 15 16
18 19 20 19 18 18 19 19 20 21 21 24 27 26 22 20 20 17 15 16 19 19 16 14 16 17 15 12 9 8 9 12 12 11 9 7 7 8 9 10 10 10 9 10 10 9 7 6 5 5 6 6 7 8 10 11 13 13 14 15 15 16 16 17 18 18 19 19 19 18 17 17 16 16
16 18 19 19 18 17 17 19 20 21 22 23 26 27 23 21 20 17 15 15 18 21 19 15 15 17 16 13 10 8 9 12 13 11 8 7 7 7 8 10 11 10 9 10 11 11 10 9 9 9 9 9 9 10 11 13 14 15 16 16 17 17 17 17 18 19 20 20 20 19 19 18 17 18
15 17 17 16 17 17 16 19 20 21 22 23 25 25 23 22 20 16 14 14 18 21 19 14 14 16 17 15 12 11 11 12 13 13 12 11 10 10 10 11 11 12 11 11 12 14 14 13 13 13 12 12 12 12 13 14 15 16 17 17 18 18 18 17 19 19 20 20 20 20 20 19 18 19
14 15 15 15 16 15 16 19 20 19 21 22 21 21 22 22 20 16 14 16 21 21 16 13 13 14 16 16 14 13 13 13 13 13 13 14 14 14 14 13 13 14 15 14 14 16 16 16 16 16 16 16 16 16 16 16 17 17 17 18 18 18 19 20 21 22 22 21 21 21 21 20 20 20
12 13 13 15 15 13 15 19 19 18 20 19 19 20 22 21 17 16 16 18 23 21 15 13 13 12 14 17 16 15 15 16 17 16 16 16 16 17 17 17 16 15 17 17 17 18 18 19 20 20 20 21 20 20 19 19 19 18 19 19 19 20 21 22 24 24 24 23 23 23 22 22 21 21
10 11 11 12 12 13 16 19 18 18 18 18 19 21 22 20 16 16 17 19 23 22 17 15 13 12 14 16 17 18 18 19 19 18 19 19 17 17 18 18 18 18 19 20 20 20 21 22 22 23 23 23 23 23 23 22 22 21 20 21 21 22 23 24 25 25 25 24 24 24 24 23 23 23
11 10 10 10 11 13 17 19 18 16 14 13 17 20 20 18 16 16 18 19 21 22 19 16 14 14 16 17 19 20 21 20 18 17 19 19 17 17 19 19 18 19 21 21 23 23 23 24 25 26 26 26 26 26 26 25 24 23 22 22 22 23 25 26 27 27 27 26 26 26 25 25 25 24
14 12 11 11 12 15 19 20 19 17 11 9 12 15 15 15 14 16 19 19 19 21 20 16 14 15 16 17 19 20 20 20 19 19 21 22 20 20 22 21 17 18 20 22 23 23 22 23 24 25 26 25 25 26 27 26 26 24 24 24 24 25 26 27 28 28 28 28 27 26 26 25 25 24
15 13 12 13 14 17 20 21 21 19 14 10 10 10 10 9 10 14 18 18 18 20 20 17 14 14 14 16 18 19 20 21 22 23 24 24 23 24 26 24 20 19 21 23 24 23 22 23 24 24 25 25 25 26 27 28 28 27 27 27 28 28 29 29 30 30 29 29 28 27 26 25 25 24
15 14 13 13 13 13 13 15 18 18 16 13 11 11 11 10 11 14 16 17 17 17 17 15 13 12 12 14 14 14 15 16 17 18 18 19 20 21 24 25 23 20 20 21 24 23 21 23 26 27 27 28 28 29 30 29 29 30 30 31 31 31 30 30 31 31 31 29 28 27 27 26 25 24
15 14 13 14 13 11 10 10 12 14 15 15 14 13 13 13 13 13 14 15 16 15 15 15 13 13 12 13 13 13 13 14 14 14 15 15 16 17 19 20 20 19 20 21 23 24 23 24 27 29 30 31 33 34 34 33 32 32 32 32 32 32 32 32 32 32 32 30 28 27 27 27 26 24
15 15 14 14 14 12 11 10 10 11 14 16 16 15 14 14 15 15 15 14 15 15 15 15 15 15 15 15 15 15 16 17 18 18 19 19 21 21 22 23 23 23 24 25 27 30 29 29 31 33 33 33 34 35 34 34 33 33 34 35 36 35 34 32 32 33 32 31 30 29 28 28 27 25
17 17 16 15 15 14 13 12 11 11 12 13 14 13 13 13 14 15 16 16 16 16 16 16 16 16 17 18 18 19 19 20 21 23 24 25 26 27 28 28 29 28 29 28 30 33 33 31 33 37 35 34 35 35 33 33 33 33 35 37 37 36 34 33 33 34 34 32 32 30 29 29 28 26
19 19 18 17 16 15 14 14 13 13 12 11 11 11 11 12 12 13 15 16 17 17 18 18 19 19 20 20 21 22 23 23 24 24 25 25 27 29 31 32 32 31 31 30 31 34 36 34 35 38 37 36 37 36 34 34 35 35 36 37 37 37 37 35 33 34 34 33 32 31 29 29 27 24
21 20 19 18 17 16 15 15 15 14 13 12 12 11 11 12 12 12 12 13 14 15 15 16 17 18 19 20 20 22 23 24 26 26 27 27 29 31 32 34 35 35 34 33 32 35 38 36 35 36 36 35 36 36 35 35 35 35 37 38 37 36 35 33 32 34 36 35 33 31 30 30 25 19
21 20 19 17 17 16 15 15 15 15 14 14 14 14 14 14 14 14 14 14 15 15 16 17 18 19 20 21 22 23 24 26 27 28 29 30 32 33 34 35 37 38 36 32 30 34 37 35 32 32 32 33 35 35 34 33 32 33 34 34 33 32 32 31 32 33 36 37 33 31 33 32 26 19
20 19 18 17 17 16 16 16 16 15 16 16 16 16 16 16 16 16 16 17 18 18 19 19 20 21 22 24 24 26 27 28 29 30 31 32 33 34 34 34 35 36 35 29 27 30 34 33 31 29 29 33 36 35 33 33 32 31 31 31 31 32 32 33 32 34 38 38 32 29 31 29 23 20
19 18 17 17 17 16 16 16 16 16 16 16 16 16 16 16 16 17 17 18 18 19 19 20 21 22 23 24 25 26 27 28 29 29 30 29 29 30 30 30 31 32 32 28 26 29 32 33 32 30 27 30 34 35 34 34 33 31 31 31 31 32 33 33 34 37 41 39 32 30 30 26 20 18
18 17 16 15 15 15 14 14 14 14 14 14 15 15 15 15 16 16 17 17 18 19 19 20 21 22 23 23 24 24 24 24 24 25 24 24 24 25 27 28 29 31 30 26 23 25 28 30 31 29 27 28 32 34 35 35 34 33 32 31 32 33 33 33 33 35 38 36 33 31 30 25 18 16
17 16 15 14 13 12 12 12 13 14 14 14 15 15 15 16 16 16 16 17 18 19 19 20 21 22 21 21 22 22 22 20 20 22 23 22 23 23 23 24 26 29 30 26 23 23 25 27 28 27 27 27 29 31 33 34 34 34 32 31 30 30 30 29 29 30 31 31 30 29 26 21 18 16
18 16 15 14 13 13 14 14 15 15 15 15 15 15 15 16 16 16 17 17 17 18 18 18 19 19 19 19 19 19 19 19 19 20 21 21 21 22 22 22 24 28 30 30 29 27 28 29 28 26 25 25 26 27 28 29 30 30 29 28 27 27 27 26 25 24 24 25 27 26 23 20 18 16
16 15 14 13 13 14 15 15 15 14 13 12 12 13 13 14 14 15 15 15 15 15 15 15 16 16 17 17 17 17 17 18 19 19 20 21 23 24 25 26 27 29 31 33 33 32 32 31 30 28 26 24 24 25 26 25 24 23 23 24 24 24 23 22 21 20 21 22 24 23 19 18 18 16
14 14 14 13 12 12 12 11 11 11 10 10 10 10 11 11 11 11 12 12 12 12 13 13 13 14 15 16 17 18 18 20 21 22 23 24 25 26 28 29 29 30 32 34 35 35 33 32 30 28 25 23 22 22 21 19 17 16 16 17 18 18 17 17 17 17 19 22 22 18 17 16 16 15
13 12 12 11 11 11 10 9 9 9 9 9 8 8 8 8 9 9 10 10 11 11 12 12 13 14 16 17 18 19 21 22 24 25 26 26 26 26 27 29 29 28 28 30 32 33 32 29 26 23 21 19 18 17 15 14 14 13 13 13 14 13 13 14 15 15 18 20 19 16 15 15 15 15
12 12 11 11 10 10 9 9 9 8 8 8 8 8 8 8 9 9 10 10 11 11 12 14 15 16 18 19 20 22 22 23 24 24 25 25 25 25 26 27 28 26 26 26 27 28 28 25 20 16 15 15 14 14 13 12 12 12 11 11 12 12 11 13 14 17 19 19 17 15 15 16 17 17
13 12 11 11 10 9 9 9 9 8 8 8 8 8 8 9 9 10 11 11 12 13 14 15 17 18 19 20 21 21 20 21 21 21 22 23 24 24 24 25 25 25 25 25 24 24 24 20 15 12 12 13 13 13 13 13 12 12 11 11 12 12 12 13 14 18 20 19 17 17 18 20 20 20
12 12 11 11 10 10 9 9 9 9 9 9 9 9 9 10 11 11 11 12 12 13 14 15 16 16 17 17 16 16 16 16 17 18 20 21 21 21 20 20 19 20 21 22 22 21 19 15 12 11 12 12 13 12 12 12 12 12 14 14 14 14 15 15 15 16 19 19 19 20 20 21 22 21
11 11 11 11 11 10 10 9 9 9 8 8 8 8 8 8 9 9 9 10 10 11 11 11 11 11 11 11 11 12 13 14 15 17 18 18 18 17 16 16 16 16 17 19 19 20 18 13 11 11 12 12 12 11 12 13 13 13 15 17 17 16 18 19 18 17 19 22 22 22 22 21 21 18
9 9 9 9 9 8 7 7 6 5 4 4 5 5 5 6 6 6 6 6 6 6 6 6 7 8 9 10 12 13 14 15 16 16 16 16 15 14 14 15 15 15 16 17 17 18 16 12 10 11 12 12 12 12 12 13 15 16 17 18 19 18 19 20 20 20 22 22 20 20 20 18 16 14
6 6 5 5 4 3 2 2 2 2 2 3 4 4 4 4 3 2 3 4 4 5 6 7 8 9 10 12 13 14 15 15 15 16 15 15 14 13 11 11 12 13 14 15 15 15 13 10 8 9 11 11 12 13 14 14 15 17 17 17 17 17 17 17 18 18 18 18 16 16 15 13 12 12
4 4 3 2 1 0 1 1 1 2 3 3 3 2 2 2 4 5 6 6 6 7 8 9 10 11 12 12 13 13 13 14 14 14 14 13 12 12 11 11 13 14 13 14 14 14 12 10 9 9 10 11 12 14 15 15 15 16 15 12 11 13 15 15 16 16 15 14 14 12 10 8 9 11
3 3 2 1 1 1 2 1 0 1 1 1 3 5 6 7 8 8 7 6 7 8 9 10 10 11 12 12 12 12 12 12 13 13 14 14 15 15 16 16 17 18 17 16 15 13 11 10 9 9 9 11 11 12 13 13 13 14 11 8 8 12 15 15 15 15 13 10 9 8 8 9 11 11
3 2 2 1 1 2 2 1 1 2 4 6 8 8 8 8 8 8 7 7 8 9 9 9 10 10 11 11 12 13 14 14 15 16 16 17 18 19 19 19 18 17 16 14 13 11 9 9 8 7 7 8 8 9 9 8 8 8 7 6 8 12 13 12 11 10 9 8 7 7 10 11 10 8
3 3 2 2 2 2 1 1 3 5 7 8 8 8 8 7 7 7 7 8 8 8 9 10 10 11 12 13 14 15 16 17 17 17 17 17 17 18 18 17 16 15 14 12 11 10 10 10 9 8 8 8 8 8 8 7 3 6 8 9 9 10 10 9 8 8 7 6 7 9 9 9 7 6
5 4 2 2 2 1 2 4 5 6 8 8 8 7 7 6 6 7 8 8 9 9 10 12 13 14 15 16 17 17 17 18 18 18 17 16 16 15 15 14 13 12 11 11 12 12 12 11 11 11 10 9 9 8 7 6 3 4 7 8 8 8 8 6 5 3 4 7 8 8 6 5 4 5
5 3 3 3 3 3 5 6 6 6 7 7 7 7 6 6 6 7 8 9 10 12 13 14 15 16 17 17 17 18 18 18 19 19 18 16 15 15 15 14 12 11 12 12 13 14 15 14 13 12 10 9 9 7 6 5 5 5 5 7 7 7 6 4 4 5 5 5 5 3 2 2 3 5
3 4 5 5 5 6 7 7 6 6 6 5 6 6 6 5 6 7 9 10 12 13 14 14 15 15 16 17 17 17 17 18 18 18 18 17 15 15 15 14 13 12 12 12 13 13 15 15 14 12 11 10 8 8 7 7 5 3 2 4 5 4 4 5 5 5 5 5 4 3 1 1 1 1
6 7 7 7 8 8 8 7 6 5 5 6 7 7 7 6 7 9 10 11 11 12 13 13 13 13 13 14 15 15 16 16 16 16 17 17 16 15 14 14 14 13 12 11 11 11 11 12 11 10 9 8 7 8 7 5 3 4 4 3 3 3 4 4 4 6 8 8 7 5 4 4 4 5
9 9 9 9 8 8 8 7 6 6 7 8 9 9 8 8 8 8 9 10 11 11 12 12 13 13 13 13 14 14 14 14 14 14 15 16 16 16 15 14 13 13 12 12 12 11 9 9 8 8 7 6 5 5 3 2 6 7 7 7 7 7 7 7 8 8 7 6 6 6 5 5 5 4
Wind_Direction
203 203 204 206 206 202 202 204 203 203 204 206 206 206 204 195 182 176 179 193 201 199 206 218 211 204 224 233 205 204 209 204 206 204 193 190 187 180 173 166 156 144 134 125 118 112 107 102 96 89 81 74 66 58 51 45 41 38 35 33 32 30 26 23 20 17 14 11 8 6 4 1 359 357
201 204 205 205 205 204 202 201 203 205 205 206 202 198 201 203 200 192 187 194 204 203 206 217 220 215 210 208 208 215 217 210 209 209 200 193 195 193 188 178 167 155 147 144 141 137 135 130 118 103 85 70 59 45 34 28 26 25 23 22 21 19 17 14 11 8 7 5 3 1 359 357 355 353
198 199 200 202 203 204 204 202 203 205 206 207 203 198 200 205 217 219 197 193 201 206 210 213 217 225 218 205 217 225 221 215 212 212 206 200 202 204 203 198 186 176 172 169 173 179 185 184 173 151 86 37 23 14 5 0 360 359 358 358 357 357 356 356 356 357 356 356 356 354 352 351 349 347
197 196 197 201 204 205 206 202 201 203 204 204 203 202 204 209 215 212 198 197 197 199 212 221 215 216 216 217 230 229 221 217 214 213 213 211 211 211 212 212 208 202 199 197 199 205 210 216 223 235 262 306 331 339 337 334 332 332 334 336 337 338 338 340 341 342 343 343 343 343 343 342 342 340
194 195 195 200 205 206 205 201 200 203 202 200 202 204 204 207 211 206 200 209 210 198 207 218 218 215 217 227 236 230 223 221 219 218 221 222 222 222 222 221 220 221 222 222 223 224 225 225 227 238 261 287 303 312 315 315 314 316 320 322 323 324 324 325 326 327 328 329 329 331 331 331 332 333
194 197 198 199 202 205 204 201 200 200 200 201 202 203 203 207 210 207 209 217 220 214 207 208 215 219 222 228 235 232 226 223 226 231 235 236 234 233 233 231 228 227 231 233 233 231 228 222 224 242 264 279 291 299 301 302 304 307 311 313 313 314 316 316 317 317 318 318 318 319 320 321 323 324
200 201 203 202 203 204 203 202 200 200 202 204 203 201 204 210 209 211 224 230 226 224 219 212 216 221 222 225 231 236 231 227 231 237 238 235 232 234 239 240 235 233 236 237 235 232 225 223 231 245 258 271 281 288 292 294 296 299 302 305 306 308 311 312 313 313 312 312 312 312 313 315 316 319
202 202 204 205 205 204 203 201 201 202 203 202 202 204 208 212 211 219 238 240 229 226 224 222 224 224 224 226 225 226 228 224 221 223 224 220 225 235 245 246 240 235 239 238 231 227 224 228 239 249 256 265 272 278 285 289 293 295 296 297 300 303 306 310 311 310 309 308 308 307 308 310 313 315
202 202 204 206 204 203 204 202 199 200 200 199 201 206 211 213 213 223 236 231 224 224 225 229 231 227 224 225 225 223 225 223 217 216 223 229 239 247 249 250 242 235 238 236 227 225 229 237 247 253 258 264 269 274 280 286 291 294 294 294 295 296 299 308 314 312 308 306 305 305 305 307 310 311
197 199 201 201 199 201 202 198 196 195 195 199 204 206 207 209 212 219 222 217 218 222 227 233 237 235 226 222 225 227 228 231 232 233 236 240 247 250 250 251 245 236 240 240 233 231 236 244 252 257 261 266 269 272 277 283 288 290 291 293 293 291 292 301 310 311 307 304 303 303 304 305 307 308
190 192 195 196 195 200 199 193 193 195 195 202 208 204 201 205 215 222 218 214 217 221 226 230 237 244 233 224 229 235 235 238 242 246 249 249 252 255 258 262 260 253 250 249 247 246 247 251 255 258 261 264 267 270 273 278 282 284 286 288 291 291 290 294 301 304 303 302 300 301 302 303 304 305
181 183 186 192 195 197 193 189 192 198 201 208 210 204 203 209 223 227 219 214 217 220 225 229 231 239 238 232 233 237 238 240 243 248 253 256 259 262 267 271 271 269 264 261 260 258 257 259 261 263 265 266 267 269 271 274 277 279 282 284 287 291 292 292 295 297 298 298 298 299 300 301 302 302
162 164 174 189 197 195 190 189 193 197 200 208 210 208 211 218 226 225 214 209 212 217 223 227 227 232 238 238 237 237 240 245 251 256 258 263 267 269 269 270 271 272 270 268 266 263 264 266 268 268 268 269 270 270 270 272 273 275 279 282 284 288 290 291 291 292 294 294 294 295 297 298 299 299
155 158 171 185 193 195 195 194 194 192 187 191 202 211 222 231 232 222 209 203 206 214 220 222 224 231 236 238 241 245 250 255 259 260 261 265 269 269 265 264 266 269 269 269 268 268 268 268 267 266 266 267 268 268 269 272 273 274 277 279 281 284 286 287 287 288 289 290 289 290 292 294 296 297
162 163 170 177 188 198 199 196 193 191 191 191 191 201 217 223 215 207 202 198 202 211 215 216 219 226 231 235 240 246 252 255 257 260 263 266 267 266 264 264 267 270 271 270 270 272 273 271 270 270 272 273 272 271 274 276 275 274 275 277 280 280 280 281 283 282 282 283 283 284 287 290 292 295
170 169 170 173 182 191 190 187 187 190 198 204 201 197 200 193 183 184 188 189 193 200 205 206 206 208 214 221 227 232 238 244 249 254 257 258 259 259 260 262 265 267 269 269 270 272 273 273 273 276 279 281 281 280 282 281 277 275 276 278 278 276 276 279 280 280 278 276 276 277 281 283 285 289
178 177 176 177 180 179 174 172 178 186 198 209 212 210 208 204 198 194 192 190 192 197 202 205 207 208 212 217 219 222 228 235 240 245 249 254 258 260 261 264 267 269 271 274 278 280 279 278 278 279 280 282 282 282 282 282 281 280 280 280 277 274 274 277 278 278 277 273 271 271 272 274 276 281
182 183 187 186 184 182 183 185 187 194 202 210 215 216 216 215 214 215 215 213 211 213 215 218 222 225 230 235 238 240 242 246 250 253 256 259 262 266 268 269 271 274 277 281 285 285 282 282 281 279 279 280 279 279 279 278 278 279 281 282 280 276 274 274 276 278 276 273 269 266 266 267 270 275
188 189 192 193 190 187 190 193 198 204 210 215 219 219 218 218 219 221 225 228 230 232 233 236 239 241 244 248 251 255 256 258 261 262 264 266 268 270 272 272 273 276 279 282 285 285 284 284 282 281 282 283 282 282 281 279 277 279 280 277 274 273 273 274 277 278 276 273 269 264 262 262 264 268
190 190 192 194 194 193 196 198 201 206 209 214 219 220 219 221 223 223 226 229 233 237 240 243 246 248 251 253 257 261 263 265 267 268 270 272 274 276 277 276 275 276 278 280 283 285 285 284 284 283 284 285 284 283 282 281 280 280 278 274 273 275 275 277 278 276 275 271 264 258 255 254 258 265
187 187 189 191 193 196 200 202 205 207 209 210 215 218 220 224 228 231 234 237 240 244 246 249 251 254 256 258 261 264 267 270 271 273 274 275 276 278 280 280 278 277 277 277 278 280 281 283 285 286 286 287 285 284 283 283 282 281 279 278 279 279 277 277 276 273 271 267 259 254 253 251 253 262
184 184 185 188 192 196 200 203 206 211 214 216 219 223 227 230 235 239 242 245 249 252 254 256 259 262 264 266 267 268 270 271 272 273 274 274 275 277 279 280 280 280 279 279 279 278 280 283 286 289 290 289 286 286 287 286 285 284 283 282 281 278 277 280 277 271 271 268 259 253 253 251 249 252
184 185 186 189 193 197 201 205 208 212 216 219 223 227 232 236 240 243 245 247 250 252 255 257 259 262 263 265 266 267 268 269 270 271 272 273 274 275 277 279 281 283 285 287 286 281 280 282 284 287 292 292 288 288 289 290 289 289 289 286 282 279 280 281 275 267 265 262 252 245 247 247 244 245
190 191 192 192 195 199 203 207 211 216 221 225 229 232 236 240 244 246 249 251 253 255 256 257 258 259 261 262 264 265 266 267 268 269 270 271 273 274 277 280 283 285 288 292 292 286 282 282 282 284 290 293 291 289 291 293 295 295 293 289 285 283 282 280 276 271 267 261 251 244 242 241 240 244
198 199 198 198 201 206 211 217 222 226 230 233 236 240 243 246 249 252 253 255 257 258 260 262 263 263 263 263 264 265 266 266 267 268 269 272 275 278 281 283 284 283 285 291 295 293 289 287 286 286 287 289 290 290 292 293 294 294 293 290 287 285 283 280 278 276 271 263 252 242 237 235 238 245
202 203 204 207 212 218 225 231 235 238 240 243 246 250 252 254 255 256 257 259 261 264 266 268 270 270 269 268 268 269 269 269 269 270 272 272 273 275 278 282 286 286 287 291 295 295 294 292 291 291 291 290 290 292 293 294 294 294 292 291 289 286 283 281 278 275 271 263 248 235 230 234 240 247
201 204 207 213 220 229 237 243 246 249 251 253 255 256 256 257 258 259 262 266 268 271 273 273 274 275 276 275 275 274 274 275 273 272 273 274 272 272 272 275 280 284 287 290 292 293 293 292 293 295 296 297 297 298 299 298 297 295 293 290 287 284 281 278 274 272 270 258 239 228 228 236 243 249
201 206 213 221 229 236 241 245 249 252 253 253 253 253 255 256 258 262 265 269 272 274 276 277 276 278 280 281 282 283 283 284 284 282 281 280 280 279 279 278 279 281 283 285 287 288 289 289 290 292 294 297 301 303 303 302 302 299 294 288 284 283 281 277 271 265 255 239 226 224 231 241 247 246
216 223 227 228 228 231 233 237 242 246 247 247 245 246 250 254 260 265 270 274 279 281 282 284 285 286 288 290 292 294 294 295 295 294 291 288 286 285 284 282 282 282 283 283 284 285 285 287 288 289 290 295 300 302 302 301 302 298 293 290 290 288 285 280 272 258 239 225 222 229 239 245 246 241
213 215 215 210 209 212 216 220 226 227 227 231 235 240 247 254 260 266 271 276 280 283 285 287 289 290 292 293 295 297 299 300 300 300 298 296 293 292 290 288 287 286 286 286 287 287 287 288 289 290 294 296 298 298 299 298 296 292 289 294 299 294 286 278 263 240 223 220 226 237 242 237 234 234
180 181 184 185 192 202 204 205 209 210 211 219 228 238 247 255 261 268 275 280 283 285 287 289 290 291 293 295 298 300 302 303 302 302 301 300 300 299 298 296 294 292 289 288 288 289 290 291 291 293 295 294 293 295 298 297 296 295 289 291 294 288 279 270 250 225 214 219 228 233 229 224 225 228
167 171 175 178 183 190 193 195 198 202 210 221 231 242 253 263 270 275 279 281 283 285 286 288 290 293 295 298 301 303 304 304 304 304 304 305 306 306 305 303 301 298 293 288 286 286 287 289 291 288 285 288 295 301 302 299 298 296 290 287 286 275 260 251 238 221 213 217 224 225 221 221 225 226
170 171 175 179 184 189 194 199 204 212 222 232 242 251 258 262 267 270 273 277 280 283 286 290 293 297 301 303 306 308 309 311 312 313 314 315 315 316 317 318 317 314 308 300 294 290 286 282 281 278 276 286 298 301 300 299 298 292 284 278 276 266 248 234 227 221 218 219 222 222 222 222 222 223
176 178 182 188 194 201 207 213 219 224 231 238 245 251 256 263 272 280 285 289 291 293 297 300 304 309 313 316 320 323 325 327 327 327 327 326 326 327 332 337 340 338 328 318 311 306 299 283 268 271 281 291 299 298 296 299 297 288 277 270 267 259 244 232 228 226 225 224 225 224 220 217 216 222
176 179 186 190 192 198 206 210 214 223 232 243 251 260 271 282 291 295 297 303 313 320 326 332 338 341 340 339 340 339 338 338 336 334 333 331 331 336 341 344 346 348 342 335 330 324 315 295 273 277 289 295 297 297 297 297 291 281 272 265 262 256 246 241 238 231 222 219 221 221 215 211 216 227
170 167 173 174 171 176 194 205 223 253 273 278 282 289 292 291 297 315 346 11 19 13 8 4 358 353 348 344 342 339 338 337 335 333 334 335 335 340 348 350 351 350 345 341 339 337 331 317 299 298 299 296 294 293 290 289 284 275 267 264 261 254 245 238 230 219 208 202 204 210 215 220 229 231
172 166 174 176 162 251 290 295 287 278 279 286 306 340 24 60 61 54 46 40 29 16 11 4 355 350 348 345 342 340 338 338 338 339 344 352 355 356 360 6 8 3 355 349 345 341 337 329 317 309 301 292 289 289 286 283 279 271 266 268 261 239 223 213 203 193 187 189 198 211 226 231 222 212
201 196 215 246 275 279 285 292 232 226 246 53 66 72 75 72 64 58 51 37 21 13 8 2 357 355 352 348 348 350 351 353 356 357 0 7 13 15 13 13 11 7 2 358 352 346 340 330 318 308 298 291 290 292 291 285 276 268 266 268 245 216 204 200 194 188 190 203 218 228 221 200 190 188
224 233 256 258 237 251 273 303 82 95 88 86 87 85 79 73 66 57 44 30 22 17 13 9 8 8 7 6 8 11 14 15 15 13 11 10 13 17 18 15 8 1 354 350 346 343 338 334 332 329 321 314 315 319 318 306 279 254 233 212 208 205 199 197 202 211 228 241 235 215 195 185 185 190
264 287 289 261 241 252 273 73 87 90 89 88 89 85 78 72 63 51 42 36 32 29 27 26 25 25 27 28 27 25 25 25 22 19 17 13 10 11 11 10 5 357 350 347 346 343 339 339 342 344 341 337 337 342 348 345 295 215 192 183 190 199 203 212 228 246 251 225 194 185 184 187 196 207
285 288 267 235 226 177 104 101 99 97 95 92 89 84 77 69 60 52 47 43 41 40 40 40 41 40 37 34 32 29 28 27 25 23 21 18 15 13 9 5 2 357 354 353 351 346 343 341 338 334 333 331 327 329 341 345 306 222 207 208 216 224 232 239 240 226 196 182 178 182 191 200 212 227
271 236 193 187 169 122 104 102 101 99 96 92 89 86 80 70 63 58 54 54 55 55 54 51 48 45 41 36 34 33 31 29 28 26 24 22 20 16 11 6 1 356 352 350 347 345 343 340 333 328 327 323 315 310 308 301 287 268 246 244 249 251 240 212 173 155 163 175 176 176 201 254 263 259
203 169 161 152 134 115 105 100 97 95 93 89 89 92 91 81 74 71 69 69 68 66 61 56 52 48 46 43 40 37 34 32 30 27 27 26 23 17 13 10 6 2 358 353 349 346 345 344 340 335 331 325 315 303 286 267 258 260 258 255 257 245 203 179 166 149 135 130 122 107 74 338 307 273
144 139 135 129 120 111 103 97 90 86 87 87 87 93 99 98 92 86 80 74 70 62 55 51 49 47 47 48 48 45 41 37 34 32 32 31 26 20 15 11 7 6 4 359 354 349 346 347 346 341 334 329 325 316 300 262 187 134 117 132 151 154 155 153 143 125 115 114 114 110 106 106 98 89
121 118 116 114 112 108 102 97 90 86 86 84 81 82 87 88 85 79 68 63 63 59 49 43 40 37 37 42 48 50 46 40 37 37 37 36 32 25 21 19 15 11 10 10 8 4 360 356 353 352 346 338 333 338 335 168 148 127 115 121 129 131 131 130 129 127 120 114 118 120 118 110 92 76